Multibeam Report for NBP0501


Ship Name: Nathaniel B. Palmer
Chief Scientist: Gordon, Arnold
Lamont-Doherty Earth Observatory
Source Organization: Marine Geoscience Data System (MGDS)
Start Date: 2005-01-28
End Date: 2005-02-13


View ISO Metadata

Visit the full NCEI Bathymetry Viewer


Multibeam Bathymetry

Cruise Details

Project: Late Cretaceous and Cenozoic Reconstructions of th
Instrument: Simrad EM120

Data Quality

Number of Files: 347
Number of Records: 220948
BATHYMETRY DATA Quantity Percentage
Number of Beams 42201068 100%
Number of Good Beams 29243380 69.3%
Number of Zero Beams 12957688 30.7%
Number of Flagged Beams 0 0%

Navigation Totals

Total Time: 331.5532 hours
Total Track Length: 6001.6926 km
Average Speed: 18.102 km/hr (9.7743 knots)

Cruise Bounds

Northern Extent: -52.762753
Southern Extent: -77.86686
Western Extent: 160.21904
Eastern Extent: -177.87257

Limits

Minimum Sonar Depth 0 Maximum Sonar Depth 31457.2793
Minimum Altitude 0 Maximum Altitude 5937.9199
Minimum Depth 14.82 Maximum Depth 6837.5801

File Information

Full Resolution Bathymetry as collected (raw): 346

Files File Size Description
0001_20050128_101856_raw.all.mb56.gz 11.67MB Simrad multibeam vendor format
0002_20050128_111857_raw.all.mb56.gz 16.31MB Simrad multibeam vendor format
0003_20050128_121857_raw.all.mb56.gz 21.15MB Simrad multibeam vendor format
0004_20050128_131857_raw.all.mb56.gz 40.32MB Simrad multibeam vendor format
0005_20050128_141857_raw.all.mb56.gz 17.14MB Simrad multibeam vendor format
0006_20050128_151857_raw.all.mb56.gz 23.01MB Simrad multibeam vendor format
0007_20050128_161857_raw.all.mb56.gz 27.63MB Simrad multibeam vendor format
0008_20050128_171858_raw.all.mb56.gz 30.25MB Simrad multibeam vendor format
0009_20050128_181858_raw.all.mb56.gz 11.07MB Simrad multibeam vendor format
0010_20050128_191858_raw.all.mb56.gz 15.10MB Simrad multibeam vendor format
0011_20050128_201858_raw.all.mb56.gz 12.31MB Simrad multibeam vendor format
0012_20050128_211858_raw.all.mb56.gz 9.54MB Simrad multibeam vendor format
0013_20050128_221858_raw.all.mb56.gz 9.91MB Simrad multibeam vendor format
0014_20050128_231858_raw.all.mb56.gz 9.41MB Simrad multibeam vendor format
0015_20050129_001858_raw.all.mb56.gz 9.88MB Simrad multibeam vendor format
0016_20050129_011858_raw.all.mb56.gz 9.31MB Simrad multibeam vendor format
0017_20050129_064407_raw.all.mb56.gz 9.36MB Simrad multibeam vendor format
0018_20050129_113354_raw.all.mb56.gz 10.76MB Simrad multibeam vendor format
0019_20050129_123357_raw.all.mb56.gz 11.60MB Simrad multibeam vendor format
0020_20050129_133357_raw.all.mb56.gz 11.71MB Simrad multibeam vendor format
0021_20050129_143357_raw.all.mb56.gz 12.52MB Simrad multibeam vendor format
0022_20050129_153357_raw.all.mb56.gz 11.92MB Simrad multibeam vendor format
0023_20050129_163358_raw.all.mb56.gz 12.61MB Simrad multibeam vendor format
0024_20050129_173358_raw.all.mb56.gz 11.35MB Simrad multibeam vendor format
0025_20050129_183358_raw.all.mb56.gz 11.23MB Simrad multibeam vendor format
0026_20050129_193358_raw.all.mb56.gz 10.46MB Simrad multibeam vendor format
0027_20050129_203358_raw.all.mb56.gz 8.15MB Simrad multibeam vendor format
0028_20050129_214745_raw.all.mb56.gz 18.72MB Simrad multibeam vendor format
0029_20050129_224746_raw.all.mb56.gz 15.32MB Simrad multibeam vendor format
0030_20050129_234746_raw.all.mb56.gz 15.42MB Simrad multibeam vendor format
0031_20050130_004746_raw.all.mb56.gz 15.72MB Simrad multibeam vendor format
0032_20050130_014746_raw.all.mb56.gz 15.86MB Simrad multibeam vendor format
0033_20050130_024746_raw.all.mb56.gz 10.43MB Simrad multibeam vendor format
0034_20050130_104841_raw.all.mb56.gz 16.21MB Simrad multibeam vendor format
0035_20050130_114842_raw.all.mb56.gz 15.71MB Simrad multibeam vendor format
0036_20050130_124842_raw.all.mb56.gz 15.52MB Simrad multibeam vendor format
0037_20050130_134842_raw.all.mb56.gz 15.18MB Simrad multibeam vendor format
0038_20050130_144842_raw.all.mb56.gz 13.55MB Simrad multibeam vendor format
0039_20050130_154842_raw.all.mb56.gz 13.27MB Simrad multibeam vendor format
0040_20050130_164842_raw.all.mb56.gz 12.63MB Simrad multibeam vendor format
0041_20050130_174842_raw.all.mb56.gz 13.18MB Simrad multibeam vendor format
0042_20050130_184842_raw.all.mb56.gz 13.56MB Simrad multibeam vendor format
0043_20050130_194842_raw.all.mb56.gz 13.83MB Simrad multibeam vendor format
0044_20050130_204842_raw.all.mb56.gz 13.86MB Simrad multibeam vendor format
0045_20050130_214843_raw.all.mb56.gz 14.11MB Simrad multibeam vendor format
0046_20050130_224843_raw.all.mb56.gz 13.76MB Simrad multibeam vendor format
0047_20050130_234843_raw.all.mb56.gz 13.24MB Simrad multibeam vendor format
0048_20050131_004843_raw.all.mb56.gz 12.68MB Simrad multibeam vendor format
0049_20050131_014843_raw.all.mb56.gz 13.04MB Simrad multibeam vendor format
0050_20050131_024843_raw.all.mb56.gz 13.94MB Simrad multibeam vendor format
0051_20050131_034843_raw.all.mb56.gz 14.73MB Simrad multibeam vendor format
0052_20050131_044843_raw.all.mb56.gz 17.03MB Simrad multibeam vendor format
0053_20050131_054843_raw.all.mb56.gz 19.32MB Simrad multibeam vendor format
0054_20050131_064843_raw.all.mb56.gz 20.56MB Simrad multibeam vendor format
0055_20050131_074844_raw.all.mb56.gz 21.35MB Simrad multibeam vendor format
0056_20050131_084844_raw.all.mb56.gz 21.26MB Simrad multibeam vendor format
0057_20050131_094844_raw.all.mb56.gz 20.70MB Simrad multibeam vendor format
0058_20050131_104844_raw.all.mb56.gz 20.77MB Simrad multibeam vendor format
0059_20050131_114844_raw.all.mb56.gz 22.30MB Simrad multibeam vendor format
0060_20050131_124844_raw.all.mb56.gz 18.83MB Simrad multibeam vendor format
0061_20050131_134844_raw.all.mb56.gz 16.63MB Simrad multibeam vendor format
0062_20050131_144844_raw.all.mb56.gz 15.22MB Simrad multibeam vendor format
0063_20050131_154844_raw.all.mb56.gz 14.50MB Simrad multibeam vendor format
0064_20050131_164845_raw.all.mb56.gz 14.18MB Simrad multibeam vendor format
0065_20050131_174845_raw.all.mb56.gz 14.05MB Simrad multibeam vendor format
0066_20050131_184845_raw.all.mb56.gz 13.70MB Simrad multibeam vendor format
0067_20050131_194845_raw.all.mb56.gz 13.82MB Simrad multibeam vendor format
0068_20050131_204845_raw.all.mb56.gz 13.68MB Simrad multibeam vendor format
0069_20050131_214845_raw.all.mb56.gz 13.86MB Simrad multibeam vendor format
0070_20050131_224845_raw.all.mb56.gz 14.19MB Simrad multibeam vendor format
0071_20050131_234845_raw.all.mb56.gz 14.46MB Simrad multibeam vendor format
0072_20050201_004845_raw.all.mb56.gz 14.75MB Simrad multibeam vendor format
0073_20050201_014845_raw.all.mb56.gz 15.07MB Simrad multibeam vendor format
0074_20050201_024846_raw.all.mb56.gz 15.57MB Simrad multibeam vendor format
0075_20050201_034846_raw.all.mb56.gz 16.27MB Simrad multibeam vendor format
0076_20050201_044846_raw.all.mb56.gz 6.17MB Simrad multibeam vendor format
0077_20050201_052115_raw.all.mb56.gz 16.78MB Simrad multibeam vendor format
0078_20050201_062115_raw.all.mb56.gz 16.57MB Simrad multibeam vendor format
0079_20050201_072115_raw.all.mb56.gz 16.58MB Simrad multibeam vendor format
0080_20050201_082115_raw.all.mb56.gz 15.94MB Simrad multibeam vendor format
0081_20050201_092115_raw.all.mb56.gz 14.72MB Simrad multibeam vendor format
0082_20050201_102115_raw.all.mb56.gz 14.84MB Simrad multibeam vendor format
0083_20050201_112115_raw.all.mb56.gz 15.17MB Simrad multibeam vendor format
0084_20050201_122115_raw.all.mb56.gz 15.79MB Simrad multibeam vendor format
0085_20050201_132115_raw.all.mb56.gz 17.60MB Simrad multibeam vendor format
0086_20050201_142116_raw.all.mb56.gz 18.64MB Simrad multibeam vendor format
0087_20050201_152116_raw.all.mb56.gz 19.45MB Simrad multibeam vendor format
0088_20050201_162116_raw.all.mb56.gz 20.80MB Simrad multibeam vendor format
0089_20050201_172116_raw.all.mb56.gz 21.52MB Simrad multibeam vendor format
0090_20050201_182116_raw.all.mb56.gz 21.08MB Simrad multibeam vendor format
0091_20050201_192116_raw.all.mb56.gz 21.11MB Simrad multibeam vendor format
0092_20050201_202116_raw.all.mb56.gz 19.63MB Simrad multibeam vendor format
0093_20050201_212116_raw.all.mb56.gz 13.69MB Simrad multibeam vendor format
0094_20050201_222116_raw.all.mb56.gz 16.62MB Simrad multibeam vendor format
0095_20050201_232117_raw.all.mb56.gz 11.54MB Simrad multibeam vendor format
0096_20050202_002117_raw.all.mb56.gz 9.32MB Simrad multibeam vendor format
0097_20050202_012117_raw.all.mb56.gz 8.82MB Simrad multibeam vendor format
0098_20050202_022117_raw.all.mb56.gz 8.72MB Simrad multibeam vendor format
0099_20050202_032117_raw.all.mb56.gz 8.32MB Simrad multibeam vendor format
0100_20050202_042117_raw.all.mb56.gz 7.78MB Simrad multibeam vendor format
0101_20050202_052117_raw.all.mb56.gz 5.32MB Simrad multibeam vendor format
0102_20050202_055952_raw.all.mb56.gz 7.84MB Simrad multibeam vendor format
0103_20050202_065952_raw.all.mb56.gz 7.51MB Simrad multibeam vendor format
0104_20050202_075952_raw.all.mb56.gz 7.81MB Simrad multibeam vendor format
0105_20050202_085952_raw.all.mb56.gz 7.88MB Simrad multibeam vendor format
0106_20050202_095952_raw.all.mb56.gz 7.53MB Simrad multibeam vendor format
0107_20050202_105952_raw.all.mb56.gz 7.72MB Simrad multibeam vendor format
0108_20050202_115952_raw.all.mb56.gz 8.14MB Simrad multibeam vendor format
0109_20050202_125952_raw.all.mb56.gz 8.12MB Simrad multibeam vendor format
0110_20050202_135953_raw.all.mb56.gz 8.55MB Simrad multibeam vendor format
0111_20050202_145953_raw.all.mb56.gz 10.23MB Simrad multibeam vendor format
0112_20050202_155953_raw.all.mb56.gz 10.76MB Simrad multibeam vendor format
0113_20050202_165953_raw.all.mb56.gz 13.00MB Simrad multibeam vendor format
0114_20050202_175953_raw.all.mb56.gz 16.40MB Simrad multibeam vendor format
0115_20050202_185953_raw.all.mb56.gz 1.34MB Simrad multibeam vendor format
0116_20050203_083706_raw.all.mb56.gz 11.68MB Simrad multibeam vendor format
0117_20050203_093706_raw.all.mb56.gz 15.74MB Simrad multibeam vendor format
0118_20050203_103706_raw.all.mb56.gz 16.65MB Simrad multibeam vendor format
0119_20050203_113706_raw.all.mb56.gz 17.86MB Simrad multibeam vendor format
0120_20050203_123706_raw.all.mb56.gz 14.76MB Simrad multibeam vendor format
0121_20050203_133706_raw.all.mb56.gz 14.92MB Simrad multibeam vendor format
0122_20050203_143706_raw.all.mb56.gz 11.79MB Simrad multibeam vendor format
0123_20050203_153707_raw.all.mb56.gz 10.08MB Simrad multibeam vendor format
0124_20050203_163707_raw.all.mb56.gz 12.55MB Simrad multibeam vendor format
0125_20050203_173707_raw.all.mb56.gz 16.44MB Simrad multibeam vendor format
0126_20050203_183707_raw.all.mb56.gz 4.09MB Simrad multibeam vendor format
0127_20050203_225233_raw.all.mb56.gz 9.05MB Simrad multibeam vendor format
0128_20050203_235233_raw.all.mb56.gz 7.39MB Simrad multibeam vendor format
0129_20050204_005233_raw.all.mb56.gz 7.47MB Simrad multibeam vendor format
0130_20050204_015233_raw.all.mb56.gz 1.56MB Simrad multibeam vendor format
0131_20050204_045630_raw.all.mb56.gz 7.17MB Simrad multibeam vendor format
0132_20050204_055630_raw.all.mb56.gz 7.16MB Simrad multibeam vendor format
0133_20050204_065631_raw.all.mb56.gz 2.88MB Simrad multibeam vendor format
0134_20050204_072059_raw.all.mb56.gz 7.01MB Simrad multibeam vendor format
0135_20050204_082059_raw.all.mb56.gz 7.27MB Simrad multibeam vendor format
0136_20050204_092059_raw.all.mb56.gz 8.24MB Simrad multibeam vendor format
0137_20050204_102059_raw.all.mb56.gz 7.44MB Simrad multibeam vendor format
0138_20050204_112100_raw.all.mb56.gz 6.26MB Simrad multibeam vendor format
0139_20050204_122100_raw.all.mb56.gz 5.17MB Simrad multibeam vendor format
0140_20050204_132100_raw.all.mb56.gz 5.20MB Simrad multibeam vendor format
0141_20050204_142100_raw.all.mb56.gz 6.43MB Simrad multibeam vendor format
0142_20050204_152100_raw.all.mb56.gz 6.00MB Simrad multibeam vendor format
0143_20050204_162100_raw.all.mb56.gz 6.43MB Simrad multibeam vendor format
0144_20050204_172100_raw.all.mb56.gz 5.98MB Simrad multibeam vendor format
0145_20050204_182100_raw.all.mb56.gz 5.80MB Simrad multibeam vendor format
0146_20050204_192100_raw.all.mb56.gz 5.94MB Simrad multibeam vendor format
0147_20050204_202101_raw.all.mb56.gz 6.76MB Simrad multibeam vendor format
0148_20050204_212101_raw.all.mb56.gz 6.52MB Simrad multibeam vendor format
0149_20050204_222101_raw.all.mb56.gz 6.56MB Simrad multibeam vendor format
0150_20050204_232101_raw.all.mb56.gz 6.52MB Simrad multibeam vendor format
0151_20050205_002101_raw.all.mb56.gz 6.43MB Simrad multibeam vendor format
0152_20050205_012101_raw.all.mb56.gz 6.66MB Simrad multibeam vendor format
0153_20050205_022101_raw.all.mb56.gz 6.85MB Simrad multibeam vendor format
0154_20050205_032101_raw.all.mb56.gz 6.76MB Simrad multibeam vendor format
0155_20050205_042101_raw.all.mb56.gz 6.50MB Simrad multibeam vendor format
0156_20050205_052104_raw.all.mb56.gz 6.34MB Simrad multibeam vendor format
0157_20050205_062104_raw.all.mb56.gz 6.38MB Simrad multibeam vendor format
0158_20050205_072104_raw.all.mb56.gz 6.51MB Simrad multibeam vendor format
0159_20050205_082104_raw.all.mb56.gz 6.71MB Simrad multibeam vendor format
0160_20050205_092104_raw.all.mb56.gz 6.78MB Simrad multibeam vendor format
0161_20050205_102104_raw.all.mb56.gz 7.07MB Simrad multibeam vendor format
0162_20050205_112104_raw.all.mb56.gz 7.62MB Simrad multibeam vendor format
0163_20050205_122104_raw.all.mb56.gz 8.54MB Simrad multibeam vendor format
0164_20050205_132104_raw.all.mb56.gz 7.41MB Simrad multibeam vendor format
0165_20050205_142104_raw.all.mb56.gz 6.67MB Simrad multibeam vendor format
0166_20050205_152105_raw.all.mb56.gz 7.10MB Simrad multibeam vendor format
0167_20050205_162105_raw.all.mb56.gz 7.52MB Simrad multibeam vendor format
0168_20050205_172105_raw.all.mb56.gz 6.90MB Simrad multibeam vendor format
0169_20050205_182105_raw.all.mb56.gz 6.94MB Simrad multibeam vendor format
0170_20050205_192105_raw.all.mb56.gz 7.19MB Simrad multibeam vendor format
0171_20050205_202105_raw.all.mb56.gz 6.29MB Simrad multibeam vendor format
0172_20050205_212105_raw.all.mb56.gz 7.33MB Simrad multibeam vendor format
0173_20050205_222105_raw.all.mb56.gz 8.19MB Simrad multibeam vendor format
0174_20050205_232105_raw.all.mb56.gz 7.49MB Simrad multibeam vendor format
0175_20050206_002106_raw.all.mb56.gz 7.83MB Simrad multibeam vendor format
0176_20050206_012106_raw.all.mb56.gz 7.05MB Simrad multibeam vendor format
0177_20050206_022106_raw.all.mb56.gz 7.09MB Simrad multibeam vendor format
0178_20050206_032106_raw.all.mb56.gz 6.83MB Simrad multibeam vendor format
0179_20050206_041931_raw.all.mb56.gz 0.59MB Simrad multibeam vendor format
0180_20050206_042441_raw.all.mb56.gz 6.99MB Simrad multibeam vendor format
0181_20050206_052441_raw.all.mb56.gz 7.12MB Simrad multibeam vendor format
0182_20050206_062441_raw.all.mb56.gz 7.48MB Simrad multibeam vendor format
0183_20050206_072441_raw.all.mb56.gz 7.48MB Simrad multibeam vendor format
0184_20050206_082442_raw.all.mb56.gz 7.57MB Simrad multibeam vendor format
0185_20050206_092442_raw.all.mb56.gz 7.99MB Simrad multibeam vendor format
0186_20050206_102442_raw.all.mb56.gz 8.37MB Simrad multibeam vendor format
0187_20050206_112442_raw.all.mb56.gz 8.50MB Simrad multibeam vendor format
0188_20050206_122442_raw.all.mb56.gz 8.04MB Simrad multibeam vendor format
0189_20050206_132442_raw.all.mb56.gz 8.11MB Simrad multibeam vendor format
0190_20050206_142442_raw.all.mb56.gz 8.13MB Simrad multibeam vendor format
0191_20050206_152442_raw.all.mb56.gz 7.93MB Simrad multibeam vendor format
0192_20050206_162443_raw.all.mb56.gz 4.01MB Simrad multibeam vendor format
0194_20050206_165829_raw.all.mb56.gz 6.35MB Simrad multibeam vendor format
0195_20050206_175829_raw.all.mb56.gz 5.54MB Simrad multibeam vendor format
0196_20050206_185830_raw.all.mb56.gz 6.14MB Simrad multibeam vendor format
0197_20050206_195830_raw.all.mb56.gz 5.66MB Simrad multibeam vendor format
0198_20050206_205830_raw.all.mb56.gz 3.88MB Simrad multibeam vendor format
0199_20050206_214001_raw.all.mb56.gz 5.51MB Simrad multibeam vendor format
0200_20050206_224001_raw.all.mb56.gz 5.72MB Simrad multibeam vendor format
0201_20050206_234001_raw.all.mb56.gz 5.81MB Simrad multibeam vendor format
0202_20050207_004001_raw.all.mb56.gz 5.52MB Simrad multibeam vendor format
0203_20050207_014001_raw.all.mb56.gz 5.56MB Simrad multibeam vendor format
0204_20050207_024001_raw.all.mb56.gz 5.57MB Simrad multibeam vendor format
0205_20050207_034001_raw.all.mb56.gz 6.22MB Simrad multibeam vendor format
0206_20050207_044001_raw.all.mb56.gz 6.58MB Simrad multibeam vendor format
0207_20050207_054002_raw.all.mb56.gz 6.34MB Simrad multibeam vendor format
0208_20050207_064002_raw.all.mb56.gz 6.18MB Simrad multibeam vendor format
0209_20050207_074002_raw.all.mb56.gz 6.31MB Simrad multibeam vendor format
0210_20050207_084002_raw.all.mb56.gz 6.32MB Simrad multibeam vendor format
0211_20050207_094002_raw.all.mb56.gz 6.30MB Simrad multibeam vendor format
0212_20050207_104002_raw.all.mb56.gz 5.35MB Simrad multibeam vendor format
0213_20050207_113103_raw.all.mb56.gz 69.5KB Simrad multibeam vendor format
0214_20050207_113204_raw.all.mb56.gz 6.62MB Simrad multibeam vendor format
0215_20050207_123204_raw.all.mb56.gz 6.64MB Simrad multibeam vendor format
0216_20050207_133204_raw.all.mb56.gz 4.03MB Simrad multibeam vendor format
0218_20050207_140921_raw.all.mb56.gz 21.2KB Simrad multibeam vendor format
0219_20050207_140955_raw.all.mb56.gz 7.54MB Simrad multibeam vendor format
0220_20050207_150955_raw.all.mb56.gz 7.64MB Simrad multibeam vendor format
0221_20050207_160955_raw.all.mb56.gz 6.39MB Simrad multibeam vendor format
0222_20050207_170956_raw.all.mb56.gz 6.86MB Simrad multibeam vendor format
0223_20050207_180956_raw.all.mb56.gz 7.75MB Simrad multibeam vendor format
0224_20050207_190956_raw.all.mb56.gz 7.91MB Simrad multibeam vendor format
0225_20050207_200956_raw.all.mb56.gz 7.72MB Simrad multibeam vendor format
0226_20050207_210956_raw.all.mb56.gz 7.14MB Simrad multibeam vendor format
0227_20050207_220956_raw.all.mb56.gz 7.54MB Simrad multibeam vendor format
0228_20050207_230956_raw.all.mb56.gz 5.87MB Simrad multibeam vendor format
0229_20050208_000956_raw.all.mb56.gz 6.32MB Simrad multibeam vendor format
0230_20050208_010957_raw.all.mb56.gz 1.53MB Simrad multibeam vendor format
0231_20050208_012327_raw.all.mb56.gz 7.69MB Simrad multibeam vendor format
0232_20050208_022328_raw.all.mb56.gz 6.23MB Simrad multibeam vendor format
0233_20050208_032328_raw.all.mb56.gz 5.04MB Simrad multibeam vendor format
0234_20050208_040902_raw.all.mb56.gz 7.28MB Simrad multibeam vendor format
0235_20050208_050903_raw.all.mb56.gz 7.52MB Simrad multibeam vendor format
0236_20050208_060903_raw.all.mb56.gz 6.86MB Simrad multibeam vendor format
0237_20050208_070903_raw.all.mb56.gz 6.73MB Simrad multibeam vendor format
0238_20050208_080903_raw.all.mb56.gz 6.75MB Simrad multibeam vendor format
0239_20050208_090903_raw.all.mb56.gz 6.55MB Simrad multibeam vendor format
0240_20050208_100903_raw.all.mb56.gz 4.64MB Simrad multibeam vendor format
0241_20050208_105140_raw.all.mb56.gz 5.92MB Simrad multibeam vendor format
0242_20050208_115140_raw.all.mb56.gz 5.41MB Simrad multibeam vendor format
0243_20050208_125140_raw.all.mb56.gz 5.64MB Simrad multibeam vendor format
0244_20050208_135140_raw.all.mb56.gz 6.11MB Simrad multibeam vendor format
0245_20050208_145140_raw.all.mb56.gz 5.25MB Simrad multibeam vendor format
0246_20050208_155140_raw.all.mb56.gz 5.24MB Simrad multibeam vendor format
0247_20050208_165140_raw.all.mb56.gz 3.69MB Simrad multibeam vendor format
0248_20050208_223526_raw.all.mb56.gz 5.47MB Simrad multibeam vendor format
0249_20050208_233526_raw.all.mb56.gz 4.87MB Simrad multibeam vendor format
0250_20050209_003526_raw.all.mb56.gz 4.80MB Simrad multibeam vendor format
0251_20050209_013526_raw.all.mb56.gz 4.84MB Simrad multibeam vendor format
0252_20050209_023527_raw.all.mb56.gz 4.33MB Simrad multibeam vendor format
0253_20050209_033527_raw.all.mb56.gz 305.6KB Simrad multibeam vendor format
0254_20050209_033928_raw.all.mb56.gz 4.81MB Simrad multibeam vendor format
0255_20050209_043928_raw.all.mb56.gz 5.13MB Simrad multibeam vendor format
0256_20050209_053928_raw.all.mb56.gz 5.29MB Simrad multibeam vendor format
0257_20050209_063929_raw.all.mb56.gz 4.76MB Simrad multibeam vendor format
0258_20050209_073929_raw.all.mb56.gz 5.59MB Simrad multibeam vendor format
0259_20050209_083929_raw.all.mb56.gz 6.98MB Simrad multibeam vendor format
0260_20050209_093929_raw.all.mb56.gz 6.56MB Simrad multibeam vendor format
0261_20050209_103929_raw.all.mb56.gz 7.08MB Simrad multibeam vendor format
0262_20050209_113929_raw.all.mb56.gz 6.79MB Simrad multibeam vendor format
0263_20050209_123929_raw.all.mb56.gz 5.98MB Simrad multibeam vendor format
0264_20050209_133929_raw.all.mb56.gz 5.89MB Simrad multibeam vendor format
0265_20050209_143929_raw.all.mb56.gz 6.70MB Simrad multibeam vendor format
0266_20050209_153930_raw.all.mb56.gz 7.63MB Simrad multibeam vendor format
0267_20050209_163930_raw.all.mb56.gz 6.02MB Simrad multibeam vendor format
0268_20050209_173930_raw.all.mb56.gz 5.54MB Simrad multibeam vendor format
0269_20050209_183930_raw.all.mb56.gz 6.44MB Simrad multibeam vendor format
0270_20050209_193930_raw.all.mb56.gz 6.37MB Simrad multibeam vendor format
0271_20050209_203930_raw.all.mb56.gz 6.04MB Simrad multibeam vendor format
0272_20050209_213930_raw.all.mb56.gz 6.07MB Simrad multibeam vendor format
0273_20050209_223930_raw.all.mb56.gz 5.72MB Simrad multibeam vendor format
0274_20050209_233931_raw.all.mb56.gz 5.59MB Simrad multibeam vendor format
0275_20050210_003931_raw.all.mb56.gz 5.22MB Simrad multibeam vendor format
0276_20050210_013931_raw.all.mb56.gz 5.13MB Simrad multibeam vendor format
0277_20050210_023931_raw.all.mb56.gz 2.92MB Simrad multibeam vendor format
0278_20050210_031628_raw.all.mb56.gz 4.81MB Simrad multibeam vendor format
0279_20050210_041628_raw.all.mb56.gz 4.86MB Simrad multibeam vendor format
0280_20050210_051629_raw.all.mb56.gz 4.86MB Simrad multibeam vendor format
0281_20050210_061629_raw.all.mb56.gz 4.93MB Simrad multibeam vendor format
0282_20050210_071629_raw.all.mb56.gz 4.54MB Simrad multibeam vendor format
0283_20050210_081629_raw.all.mb56.gz 4.58MB Simrad multibeam vendor format
0284_20050210_091629_raw.all.mb56.gz 4.98MB Simrad multibeam vendor format
0285_20050210_101629_raw.all.mb56.gz 5.31MB Simrad multibeam vendor format
0286_20050210_111629_raw.all.mb56.gz 5.71MB Simrad multibeam vendor format
0287_20050210_121629_raw.all.mb56.gz 5.97MB Simrad multibeam vendor format
0288_20050210_131630_raw.all.mb56.gz 5.77MB Simrad multibeam vendor format
0289_20050210_141630_raw.all.mb56.gz 5.30MB Simrad multibeam vendor format
0290_20050210_151630_raw.all.mb56.gz 5.87MB Simrad multibeam vendor format
0291_20050210_161630_raw.all.mb56.gz 5.59MB Simrad multibeam vendor format
0292_20050210_171630_raw.all.mb56.gz 5.16MB Simrad multibeam vendor format
0293_20050210_181630_raw.all.mb56.gz 5.75MB Simrad multibeam vendor format
0294_20050210_191630_raw.all.mb56.gz 5.55MB Simrad multibeam vendor format
0295_20050210_201630_raw.all.mb56.gz 5.95MB Simrad multibeam vendor format
0296_20050210_211630_raw.all.mb56.gz 5.73MB Simrad multibeam vendor format
0297_20050210_221631_raw.all.mb56.gz 5.87MB Simrad multibeam vendor format
0298_20050210_231631_raw.all.mb56.gz 5.87MB Simrad multibeam vendor format
0299_20050211_001631_raw.all.mb56.gz 6.22MB Simrad multibeam vendor format
0300_20050211_011631_raw.all.mb56.gz 6.12MB Simrad multibeam vendor format
0301_20050211_021631_raw.all.mb56.gz 6.23MB Simrad multibeam vendor format
0302_20050211_031631_raw.all.mb56.gz 4.25MB Simrad multibeam vendor format
0303_20050211_040617_raw.all.mb56.gz 5.52MB Simrad multibeam vendor format
0304_20050211_050617_raw.all.mb56.gz 5.45MB Simrad multibeam vendor format
0305_20050211_060617_raw.all.mb56.gz 5.05MB Simrad multibeam vendor format
0306_20050211_070617_raw.all.mb56.gz 5.17MB Simrad multibeam vendor format
0307_20050211_080617_raw.all.mb56.gz 5.33MB Simrad multibeam vendor format
0308_20050211_090617_raw.all.mb56.gz 6.17MB Simrad multibeam vendor format
0309_20050211_100617_raw.all.mb56.gz 5.79MB Simrad multibeam vendor format
0310_20050211_110617_raw.all.mb56.gz 5.53MB Simrad multibeam vendor format
0311_20050211_120617_raw.all.mb56.gz 5.69MB Simrad multibeam vendor format
0312_20050211_130618_raw.all.mb56.gz 5.49MB Simrad multibeam vendor format
0313_20050211_140618_raw.all.mb56.gz 5.61MB Simrad multibeam vendor format
0314_20050211_150618_raw.all.mb56.gz 5.38MB Simrad multibeam vendor format
0315_20050211_160618_raw.all.mb56.gz 5.22MB Simrad multibeam vendor format
0316_20050211_170618_raw.all.mb56.gz 5.70MB Simrad multibeam vendor format
0317_20050211_180618_raw.all.mb56.gz 5.47MB Simrad multibeam vendor format
0318_20050211_190618_raw.all.mb56.gz 5.36MB Simrad multibeam vendor format
0319_20050211_200618_raw.all.mb56.gz 36.3KB Simrad multibeam vendor format
0320_20050211_200651_raw.all.mb56.gz 5.63MB Simrad multibeam vendor format
0321_20050211_210651_raw.all.mb56.gz 5.96MB Simrad multibeam vendor format
0322_20050211_220652_raw.all.mb56.gz 6.02MB Simrad multibeam vendor format
0323_20050211_230652_raw.all.mb56.gz 5.69MB Simrad multibeam vendor format
0324_20050212_000652_raw.all.mb56.gz 5.33MB Simrad multibeam vendor format
0325_20050212_010652_raw.all.mb56.gz 5.41MB Simrad multibeam vendor format
0326_20050212_020652_raw.all.mb56.gz 5.60MB Simrad multibeam vendor format
0327_20050212_030652_raw.all.mb56.gz 3.83MB Simrad multibeam vendor format
0328_20050212_035408_raw.all.mb56.gz 5.29MB Simrad multibeam vendor format
0329_20050212_045409_raw.all.mb56.gz 5.69MB Simrad multibeam vendor format
0330_20050212_055409_raw.all.mb56.gz 5.77MB Simrad multibeam vendor format
0331_20050212_065409_raw.all.mb56.gz 5.78MB Simrad multibeam vendor format
0332_20050212_075409_raw.all.mb56.gz 5.71MB Simrad multibeam vendor format
0333_20050212_085409_raw.all.mb56.gz 5.79MB Simrad multibeam vendor format
0334_20050212_095409_raw.all.mb56.gz 6.15MB Simrad multibeam vendor format
0335_20050212_105409_raw.all.mb56.gz 5.98MB Simrad multibeam vendor format
0336_20050212_115409_raw.all.mb56.gz 5.91MB Simrad multibeam vendor format
0337_20050212_125409_raw.all.mb56.gz 4.92MB Simrad multibeam vendor format
0338_20050212_135410_raw.all.mb56.gz 5.51MB Simrad multibeam vendor format
0339_20050212_145410_raw.all.mb56.gz 7.58MB Simrad multibeam vendor format
0340_20050212_155410_raw.all.mb56.gz 6.50MB Simrad multibeam vendor format
0341_20050212_165410_raw.all.mb56.gz 7.15MB Simrad multibeam vendor format
0342_20050212_175410_raw.all.mb56.gz 6.71MB Simrad multibeam vendor format
0343_20050212_185410_raw.all.mb56.gz 7.36MB Simrad multibeam vendor format
0344_20050212_195410_raw.all.mb56.gz 7.71MB Simrad multibeam vendor format
0345_20050212_205410_raw.all.mb56.gz 8.24MB Simrad multibeam vendor format
0346_20050212_215410_raw.all.mb56.gz 7.54MB Simrad multibeam vendor format
0347_20050212_225411_raw.all.mb56.gz 7.17MB Simrad multibeam vendor format
0348_20050212_235411_raw.all.mb56.gz 8.05MB Simrad multibeam vendor format

Metadata Files: 1

Files File Size Description
NBP0501_Multibeam.xml NGDC created ISO metadata